Weather History for Mesquite, TX

Change the Weather History Date:

Saturday, February 23, 2013

  Actual Average (KDFW) Record (KDFW)
Temperature  
Mean Temperature 42 °F 52 °F  
Max Temperature 51 °F 62 °F 86 °F (1933)
Min Temperature 32 °F 42 °F 16 °F (1901)
Degree Days  
Heating Degree Days 24 13  
Month to date heating degree days 364  
Since 1 July heating degree days 1869  
Cooling Degree Days 0 0  
Month to date cooling degree days 0  
Year to date cooling degree days 2  
Moisture  
Dew Point 27 °F    
Average Humidity 60    
Maximum Humidity 80    
Minimum Humidity 38    
Precipitation  
Precipitation 0.00 in 0.10 in 3.08 in (1949)
Month to date precipitation 2.13  
Year to date precipitation 4.26  
Snow  
Snow 0.00 in 0.00 in 3.70 in (1975)
Month to date snowfall 0.4  
Since 1 July snowfall 1.0  
Snow Depth -    
Sea Level Pressure  
Sea Level Pressure 30.03 in    
Wind  
Wind Speed 5 mph (NNE)    
Max Wind Speed 13 mph    
Max Gust Speed 17 mph    
Visibility 10 miles    
Events      
T = Trace of Precipitation, MM = Missing Value Source: NWS Daily Summary

Daily Weather History Graph

Daily Weather History Graph

Search for Another Location

Airport:

Trip Planner

Search our weather history database for the weather conditions in past years. The results will help you decide how hot, cold, wet, or windy it might be!

Date:

Astronomy

Feb. 23, 2013 Rise Set
Actual Time 7:00 AM CST 6:18 PM CST
Civil Twilight 6:35 AM CST 6:43 PM CST
Nautical Twilight 6:06 AM CST 7:12 PM CST
Astronomical Twilight 5:38 AM CST 7:40 PM CST
Moon 4:33 PM CST (2/23) 5:19 AM CST (2/23)
Length of Visible Light 12h 08m
Length of Day
11h 18m
Waxing Gibbous, 95% of the Moon is Illuminated
Feb 23
Waxing Gibbous
Feb 25
Full
Mar 4
Last Quarter
Mar 11
New
Mar 19
First Quarter

Hourly Weather History & Observations

Time (CST) Temp. Windchill Dew Point Humidity Pressure Visibility Wind Dir Wind Speed Gust Speed Precip Events Conditions
12:15 AM 37.4 °F 33.8 °F 28.4 °F 70% 30.09 in 10.0 mi North 4.6 mph - N/A   Clear
12:35 AM 37.4 °F 34.9 °F 28.4 °F 70% 30.09 in 10.0 mi North 3.5 mph - N/A   Clear
1:15 AM 37.4 °F 33.8 °F 26.6 °F 65% 30.08 in 10.0 mi NNE 4.6 mph - N/A   Clear
1:35 AM 35.6 °F 31.7 °F 26.6 °F 70% 30.08 in 10.0 mi NE 4.6 mph - N/A   Clear
1:55 AM 35.6 °F 31.7 °F 26.6 °F 70% 30.07 in 10.0 mi NNE 4.6 mph - N/A   Clear
2:15 AM 33.8 °F 29.6 °F 26.6 °F 75% 30.07 in 10.0 mi NNE 4.6 mph - N/A   Clear
2:35 AM 33.8 °F 28.6 °F 26.6 °F 75% 30.05 in 10.0 mi NNE 5.8 mph - N/A   Clear
2:55 AM 33.8 °F 29.6 °F 26.6 °F 75% 30.04 in 10.0 mi North 4.6 mph - N/A   Clear
3:15 AM 33.8 °F 28.6 °F 26.6 °F 75% 30.04 in 10.0 mi North 5.8 mph - N/A   Clear
3:35 AM 33.8 °F 28.6 °F 26.6 °F 75% 30.04 in 10.0 mi NNE 5.8 mph - N/A   Clear
3:55 AM 33.8 °F 27.0 °F 26.6 °F 75% 30.03 in 10.0 mi North 8.1 mph - N/A   Clear
4:15 AM 33.8 °F 27.7 °F 26.6 °F 75% 30.02 in 10.0 mi NNE 6.9 mph - N/A   Clear
4:35 AM 33.8 °F 30.8 °F 26.6 °F 75% 30.02 in 10.0 mi NE 3.5 mph - N/A   Clear
4:55 AM 32.0 °F 27.5 °F 24.8 °F 75% 30.03 in 10.0 mi NNE 4.6 mph - N/A   Clear
5:15 AM 32.0 °F - 24.8 °F 75% 30.03 in 10.0 mi Calm Calm - N/A   Clear
5:35 AM 32.0 °F 28.7 °F 24.8 °F 75% 30.04 in 10.0 mi North 3.5 mph - N/A   Clear
6:15 AM 32.0 °F - 24.8 °F 75% 30.06 in 10.0 mi Calm Calm - N/A   Clear
6:35 AM 32.0 °F 26.4 °F 24.8 °F 75% 30.06 in 10.0 mi North 5.8 mph - N/A   Clear
6:55 AM 32.0 °F 24.8 °F 26.6 °F 80% 30.05 in 10.0 mi North 8.1 mph - N/A   Clear
7:15 AM 32.0 °F 27.5 °F 26.6 °F 80% 30.06 in 10.0 mi NNE 4.6 mph - N/A   Clear
7:35 AM 32.0 °F 28.7 °F 26.6 °F 80% 30.05 in 10.0 mi NNE 3.5 mph - N/A   Clear
7:55 AM 32.0 °F - 26.6 °F 80% 30.07 in 10.0 mi Calm Calm - N/A   Clear
8:15 AM 33.8 °F 30.8 °F 26.6 °F 75% 30.09 in 10.0 mi North 3.5 mph - N/A   Clear
8:35 AM 35.6 °F 31.7 °F 26.6 °F 70% 30.09 in 10.0 mi NNE 4.6 mph - N/A   Clear
8:55 AM 35.6 °F 30.7 °F 26.6 °F 70% 30.09 in 10.0 mi North 5.8 mph - N/A   Clear
9:15 AM 37.4 °F 34.9 °F 26.6 °F 65% 30.09 in 10.0 mi NNE 3.5 mph - N/A   Clear
9:55 AM 41.0 °F 35.2 °F 28.4 °F 61% 30.07 in 10.0 mi North 9.2 mph - N/A   Clear
10:15 AM 41.0 °F 34.3 °F 26.6 °F 57% 30.08 in 10.0 mi North 11.5 mph - N/A   Clear
10:35 AM 42.8 °F 38.0 °F 26.6 °F 53% 30.08 in 10.0 mi NNE 8.1 mph - N/A   Clear
10:55 AM 44.6 °F 39.2 °F 26.6 °F 49% 30.09 in 10.0 mi NNW 10.4 mph - N/A   Clear
11:15 AM 44.6 °F 38.8 °F 26.6 °F 49% 30.09 in 10.0 mi North 11.5 mph - N/A   Clear
11:35 AM 46.4 °F 41.5 °F 23.0 °F 40% 30.09 in 10.0 mi NW 10.4 mph - N/A   Scattered Clouds
12:15 PM 46.4 °F 41.1 °F 23.0 °F 40% 30.07 in 10.0 mi NNW 11.5 mph - N/A   Overcast
12:35 PM 46.4 °F 41.9 °F 24.8 °F 43% 30.07 in 10.0 mi North 9.2 mph 16.1 mph N/A   Scattered Clouds
12:55 PM 48.2 °F - 26.6 °F 43% 30.06 in 10.0 mi NNW 9.2 mph - N/A   Clear
1:15 PM 50.0 °F - 26.6 °F 40% 30.05 in 10.0 mi North 10.4 mph 16.1 mph N/A   Clear
1:35 PM 48.2 °F - 26.6 °F 43% 30.03 in 10.0 mi North 12.7 mph 17.3 mph N/A   Clear
1:55 PM 50.0 °F - 26.6 °F 40% 30.01 in 10.0 mi North 9.2 mph 16.1 mph N/A   Clear
2:15 PM 50.0 °F - 26.6 °F 40% 30.00 in 10.0 mi NNE 6.9 mph - N/A   Clear
2:35 PM 50.0 °F - 26.6 °F 40% 29.99 in 10.0 mi NNE 4.6 mph - N/A   Clear
3:15 PM 50.0 °F - 26.6 °F 40% 29.98 in 10.0 mi North 3.5 mph - N/A   Clear
3:35 PM 50.0 °F - 26.6 °F 40% 29.98 in 10.0 mi NW 4.6 mph - N/A   Clear
4:15 PM 51.8 °F - 26.6 °F 38% 29.97 in 10.0 mi Calm Calm - N/A   Clear
4:35 PM 51.8 °F - 26.6 °F 38% 29.97 in 10.0 mi Calm Calm - N/A   Clear
4:55 PM 51.8 °F - 26.6 °F 38% 29.96 in 10.0 mi Calm Calm - N/A   Clear
5:15 PM 51.8 °F - 26.6 °F 38% 29.96 in 10.0 mi Calm Calm - N/A   Clear
5:35 PM 51.8 °F - 26.6 °F 38% 29.96 in 10.0 mi NNE 4.6 mph - N/A   Clear
5:55 PM 50.0 °F - 26.6 °F 40% 29.95 in 10.0 mi Calm Calm - N/A   Clear
6:15 PM 50.0 °F - 26.6 °F 40% 29.96 in 10.0 mi Calm Calm - N/A   Clear
6:35 PM 48.2 °F - 26.6 °F 43% 29.96 in 10.0 mi ENE 3.5 mph - N/A   Clear
7:15 PM 44.6 °F - 26.6 °F 49% 29.97 in 10.0 mi Calm Calm - N/A   Clear
7:55 PM 42.8 °F - 28.4 °F 57% 29.98 in 10.0 mi Calm Calm - N/A   Clear
8:15 PM 44.6 °F - 26.6 °F 49% 29.98 in 10.0 mi Calm Calm - N/A   Clear
8:35 PM 42.8 °F - 26.6 °F 53% 29.98 in 10.0 mi Calm Calm - N/A   Clear
8:55 PM 41.0 °F 39.0 °F 28.4 °F 61% 29.98 in 10.0 mi ENE 3.5 mph - N/A   Clear
9:35 PM 41.0 °F - 30.2 °F 65% 29.98 in 10.0 mi Calm Calm - N/A   Clear
9:55 PM 41.0 °F - 28.4 °F 61% 29.98 in 10.0 mi Calm Calm - N/A   Clear
10:15 PM 41.0 °F 38.0 °F 28.4 °F 61% 29.96 in 10.0 mi ENE 4.6 mph - N/A   Clear
10:35 PM 37.4 °F 34.9 °F 28.4 °F 70% 29.96 in 10.0 mi East 3.5 mph - N/A   Clear
11:15 PM 37.4 °F 33.8 °F 28.4 °F 70% 29.95 in 10.0 mi East 4.6 mph - N/A   Clear
11:35 PM 37.4 °F - 28.4 °F 70% 29.94 in 10.0 mi Calm Calm - N/A   Clear
11:55 PM 35.6 °F - 28.4 °F 75% 29.95 in 10.0 mi Calm Calm - N/A   Clear